Time,TemperatureF,DewpointF,PressureIn,WindDirection,WindDirectionDegrees,WindSpeedMPH,WindSpeedGustMPH,Humidity,HourlyPrecipIn,Conditions,Clouds,dailyrainin,SoftwareType,DateUTC
2013-01-29 00:13:00,73.9,66.0,30.24,ESE,112,4.0,15.0,76,0.00,,,0.00,weatherlink.com 1.10,2013-01-29 05:13:00,
2013-01-29 00:28:00,73.9,66.0,30.24,SE,135,3.0,12.0,75,0.00,,,0.00,weatherlink.com 1.10,2013-01-29 05:28:00,
2013-01-29 00:43:00,74.1,66.0,30.23,SE,144,7.0,12.0,76,0.00,,,0.00,weatherlink.com 1.10,2013-01-29 05:43:00,
2013-01-29 00:58:00,73.9,66.0,30.23,East,100,3.0,15.0,76,0.00,,,0.00,weatherlink.com 1.10,2013-01-29 05:58:00,
2013-01-29 01:13:00,73.9,66.0,30.23,ESE,121,2.0,11.0,76,0.00,,,0.00,weatherlink.com 1.10,2013-01-29 06:13:00,
2013-01-29 01:28:00,73.8,66.0,30.22,ESE,112,7.0,11.0,76,0.00,,,0.00,weatherlink.com 1.10,2013-01-29 06:28:00,
2013-01-29 01:43:00,73.8,66.0,30.22,SSE,152,6.0,13.0,76,0.00,,,0.00,weatherlink.com 1.10,2013-01-29 06:43:00,
2013-01-29 01:58:00,73.8,65.0,30.21,ESE,119,3.0,14.0,75,0.00,,,0.00,weatherlink.com 1.10,2013-01-29 06:58:00,
2013-01-29 02:15:00,73.8,65.0,30.20,SE,125,3.0,11.0,75,0.00,,,0.00,weatherlink.com 1.10,2013-01-29 07:15:00,
2013-01-29 02:28:00,73.8,65.0,30.20,ESE,117,2.0,12.0,75,0.00,,,0.00,weatherlink.com 1.10,2013-01-29 07:28:00,
2013-01-29 02:43:00,73.6,65.0,30.20,SE,137,5.0,10.0,74,0.00,,,0.00,weatherlink.com 1.10,2013-01-29 07:43:00,
2013-01-29 02:58:00,73.6,65.0,30.20,SE,127,4.0,12.0,74,0.00,,,0.00,weatherlink.com 1.10,2013-01-29 07:58:00,
2013-01-29 03:13:00,73.6,65.0,30.20,SE,127,4.0,14.0,74,0.00,,,0.00,weatherlink.com 1.10,2013-01-29 08:13:00,
2013-01-29 03:28:00,73.8,65.0,30.19,ESE,123,0.0,17.0,75,0.00,,,0.00,weatherlink.com 1.10,2013-01-29 08:28:00,
2013-01-29 03:44:00,73.6,65.0,30.19,SSE,156,5.0,12.0,75,0.00,,,0.00,weatherlink.com 1.10,2013-01-29 08:44:00,
2013-01-29 03:58:00,73.6,65.0,30.19,SSE,148,3.0,15.0,75,0.00,,,0.00,weatherlink.com 1.10,2013-01-29 08:58:00,
2013-01-29 04:14:00,73.6,65.0,30.19,SE,138,0.0,14.0,75,0.00,,,0.00,weatherlink.com 1.10,2013-01-29 09:14:00,
2013-01-29 04:28:00,73.4,65.0,30.19,SE,136,0.0,9.0,76,0.00,,,0.00,weatherlink.com 1.10,2013-01-29 09:28:00,
2013-01-29 04:43:00,73.4,65.0,30.19,SE,125,5.0,12.0,76,0.00,,,0.00,weatherlink.com 1.10,2013-01-29 09:43:00,
2013-01-29 04:58:00,73.2,66.0,30.19,SE,127,2.0,8.0,77,0.00,,,0.00,weatherlink.com 1.10,2013-01-29 09:58:00,
2013-01-29 05:13:00,73.2,66.0,30.19,East,90,9.0,12.0,77,0.00,,,0.00,weatherlink.com 1.10,2013-01-29 10:13:00,
2013-01-29 05:29:00,73.2,66.0,30.19,SE,135,4.0,8.0,78,0.00,,,0.00,weatherlink.com 1.10,2013-01-29 10:29:00,
2013-01-29 05:43:00,73.2,66.0,30.19,ESE,121,0.0,11.0,78,0.00,,,0.00,weatherlink.com 1.10,2013-01-29 10:43:00,
2013-01-29 06:00:00,73.1,66.0,30.20,SE,129,3.0,7.0,79,0.00,,,0.00,weatherlink.com 1.10,2013-01-29 11:00:00,
2013-01-29 06:13:00,73.1,66.0,30.20,SE,139,0.0,5.0,79,0.00,,,0.00,weatherlink.com 1.10,2013-01-29 11:13:00,
2013-01-29 06:28:00,73.2,67.0,30.21,SE,131,2.0,11.0,80,0.00,,,0.00,weatherlink.com 1.10,2013-01-29 11:28:00,
2013-01-29 06:44:00,73.1,67.0,30.21,SE,126,2.0,7.0,80,0.00,,,0.00,weatherlink.com 1.10,2013-01-29 11:44:00,
2013-01-29 06:58:00,73.1,67.0,30.21,SE,135,2.0,8.0,80,0.00,,,0.00,weatherlink.com 1.10,2013-01-29 11:58:00,
2013-01-29 07:13:00,73.1,67.0,30.21,SE,131,3.0,7.0,81,0.00,,,0.00,weatherlink.com 1.10,2013-01-29 12:13:00,
2013-01-29 07:29:00,73.2,67.0,30.22,SE,127,3.0,9.0,81,0.00,,,0.00,weatherlink.com 1.10,2013-01-29 12:29:00,
2013-01-29 07:44:00,73.8,67.0,30.22,SE,145,1.0,8.0,80,0.00,,,0.00,weatherlink.com 1.10,2013-01-29 12:44:00,
2013-01-29 07:59:00,74.1,68.0,30.22,SE,135,4.0,12.0,80,0.00,,,0.00,weatherlink.com 1.10,2013-01-29 12:59:00,
2013-01-29 08:14:00,74.6,68.0,30.22,SE,134,0.0,6.0,79,0.00,,,0.00,weatherlink.com 1.10,2013-01-29 13:14:00,
2013-01-29 08:29:00,75.2,68.0,30.23,SSE,160,5.0,13.0,78,0.00,,,0.00,weatherlink.com 1.10,2013-01-29 13:29:00,
2013-01-29 08:44:00,75.7,68.0,30.23,SSE,148,7.0,15.0,77,0.00,,,0.00,weatherlink.com 1.10,2013-01-29 13:44:00,
2013-01-29 08:59:00,76.0,68.0,30.23,ESE,117,4.0,14.0,77,0.00,,,0.00,weatherlink.com 1.10,2013-01-29 13:59:00,
2013-01-29 09:14:00,75.9,68.0,30.23,SSE,152,12.0,13.0,77,0.00,,,0.00,weatherlink.com 1.10,2013-01-29 14:14:00,
2013-01-29 09:29:00,76.7,68.0,30.23,SSE,147,0.0,13.0,75,0.00,,,0.00,weatherlink.com 1.10,2013-01-29 14:29:00,
2013-01-29 09:44:00,76.9,68.0,30.23,SSE,148,7.0,18.0,75,0.00,,,0.00,weatherlink.com 1.10,2013-01-29 14:44:00,
2013-01-29 09:59:00,76.7,68.0,30.23,SSE,164,7.0,18.0,75,0.00,,,0.00,weatherlink.com 1.10,2013-01-29 14:59:00,
2013-01-29 10:14:00,76.9,68.0,30.23,SE,129,4.0,17.0,74,0.00,,,0.00,weatherlink.com 1.10,2013-01-29 15:14:00,
2013-01-29 10:29:00,77.1,68.0,30.24,SSE,160,3.0,20.0,73,0.00,,,0.00,weatherlink.com 1.10,2013-01-29 15:29:00,
2013-01-29 10:44:00,77.5,68.0,30.23,SSE,147,3.0,17.0,73,0.00,,,0.00,weatherlink.com 1.10,2013-01-29 15:44:00,
2013-01-29 10:59:00,77.3,68.0,30.23,SSE,162,13.0,19.0,73,0.00,,,0.00,weatherlink.com 1.10,2013-01-29 15:59:00,
2013-01-29 11:14:00,77.3,68.0,30.23,SE,127,13.0,17.0,73,0.00,,,0.00,weatherlink.com 1.10,2013-01-29 16:14:00,
2013-01-29 11:29:00,77.3,68.0,30.22,South,171,4.0,15.0,73,0.00,,,0.00,weatherlink.com 1.10,2013-01-29 16:29:00,
2013-01-29 11:44:00,76.9,68.0,30.22,SE,135,8.0,18.0,75,0.00,,,0.00,weatherlink.com 1.10,2013-01-29 16:44:00,
2013-01-29 11:59:00,76.9,68.0,30.22,SE,135,4.0,15.0,75,0.00,,,0.00,weatherlink.com 1.10,2013-01-29 16:59:00,
2013-01-29 12:14:00,77.6,68.0,30.21,SSE,147,0.0,18.0,73,0.00,,,0.00,weatherlink.com 1.10,2013-01-29 17:14:00,
2013-01-29 12:29:00,77.3,68.0,30.21,SE,139,11.0,19.0,73,0.00,,,0.00,weatherlink.com 1.10,2013-01-29 17:29:00,
2013-01-29 12:44:00,77.1,68.0,30.20,SE,129,10.0,18.0,73,0.00,,,0.00,weatherlink.com 1.10,2013-01-29 17:44:00,
2013-01-29 12:59:00,77.5,68.0,30.19,ESE,113,14.0,18.0,72,0.00,,,0.00,weatherlink.com 1.10,2013-01-29 17:59:00,
2013-01-29 13:14:00,77.1,67.0,30.18,SSE,161,4.0,19.0,72,0.00,,,0.00,weatherlink.com 1.10,2013-01-29 18:14:00,
2013-01-29 13:29:00,76.9,68.0,30.17,SE,146,11.0,20.0,73,0.00,,,0.00,weatherlink.com 1.10,2013-01-29 18:29:00,
2013-01-29 13:44:00,76.7,67.0,30.17,SE,137,7.0,16.0,72,0.00,,,0.00,weatherlink.com 1.10,2013-01-29 18:44:00,
2013-01-29 13:59:00,76.9,67.0,30.16,SE,142,8.0,17.0,71,0.00,,,0.00,weatherlink.com 1.10,2013-01-29 18:59:00,
2013-01-29 14:14:00,77.3,67.0,30.16,SE,133,0.0,20.0,71,0.00,,,0.00,weatherlink.com 1.10,2013-01-29 19:14:00,
2013-01-29 14:29:00,77.6,67.0,30.15,South,172,7.0,15.0,70,0.00,,,0.00,weatherlink.com 1.10,2013-01-29 19:29:00,
2013-01-29 14:44:00,77.1,67.0,30.15,South,169,11.0,20.0,71,0.00,,,0.00,weatherlink.com 1.10,2013-01-29 19:44:00,
2013-01-29 14:59:00,76.7,67.0,30.14,SSE,166,3.0,21.0,72,0.00,,,0.00,weatherlink.com 1.10,2013-01-29 19:59:00,
2013-01-29 15:14:00,76.7,66.0,30.14,ESE,117,12.0,21.0,70,0.00,,,0.00,weatherlink.com 1.10,2013-01-29 20:14:00,
2013-01-29 15:29:00,76.9,67.0,30.14,SE,125,7.0,14.0,72,0.00,,,0.00,weatherlink.com 1.10,2013-01-29 20:29:00,
2013-01-29 15:44:00,76.6,66.0,30.13,SE,144,7.0,18.0,69,0.00,,,0.00,weatherlink.com 1.10,2013-01-29 20:44:00,
2013-01-29 15:59:00,76.7,66.0,30.13,SE,143,10.0,17.0,69,0.00,,,0.00,weatherlink.com 1.10,2013-01-29 20:59:00,
2013-01-29 16:14:00,76.6,66.0,30.13,ESE,104,14.0,18.0,70,0.00,,,0.00,weatherlink.com 1.10,2013-01-29 21:14:00,
2013-01-29 16:29:00,76.4,66.0,30.14,ESE,121,3.0,13.0,71,0.00,,,0.00,weatherlink.com 1.10,2013-01-29 21:29:00,
2013-01-29 16:44:00,76.4,66.0,30.14,SE,131,7.0,14.0,70,0.00,,,0.00,weatherlink.com 1.10,2013-01-29 21:44:00,
2013-01-29 16:59:00,75.9,66.0,30.15,ESE,121,6.0,16.0,72,0.00,,,0.00,weatherlink.com 1.10,2013-01-29 21:59:00,
2013-01-29 17:14:00,75.7,66.0,30.15,SE,130,13.0,13.0,72,0.00,,,0.00,weatherlink.com 1.10,2013-01-29 22:14:00,
2013-01-29 17:29:00,75.3,66.0,30.15,SE,127,7.0,14.0,73,0.00,,,0.00,weatherlink.com 1.10,2013-01-29 22:29:00,
2013-01-29 17:44:00,75.0,66.0,30.15,ESE,106,0.0,10.0,74,0.00,,,0.00,weatherlink.com 1.10,2013-01-29 22:44:00,
2013-01-29 17:59:00,74.8,66.0,30.15,ESE,112,0.0,13.0,73,0.00,,,0.00,weatherlink.com 1.10,2013-01-29 22:59:00,
2013-01-29 18:14:00,74.8,65.0,30.16,SE,136,5.0,11.0,72,0.00,,,0.00,weatherlink.com 1.10,2013-01-29 23:14:00,
2013-01-29 18:29:00,74.5,65.0,30.16,SE,137,2.0,12.0,71,0.00,,,0.00,weatherlink.com 1.10,2013-01-29 23:29:00,
2013-01-29 18:44:00,74.6,65.0,30.16,SE,133,0.0,7.0,71,0.00,,,0.00,weatherlink.com 1.10,2013-01-29 23:44:00,
2013-01-29 18:59:00,74.6,65.0,30.16,ESE,104,0.0,11.0,72,0.00,,,0.00,weatherlink.com 1.10,2013-01-29 23:59:00,
2013-01-29 19:14:00,74.3,65.0,30.16,SE,131,5.0,10.0,72,0.00,,,0.00,weatherlink.com 1.10,2013-01-30 00:14:00,
2013-01-29 19:29:00,74.5,64.0,30.16,SSE,148,5.0,11.0,69,0.00,,,0.00,weatherlink.com 1.10,2013-01-30 00:29:00,
2013-01-29 19:59:00,74.5,65.0,30.16,ESE,110,7.0,14.0,71,0.00,,,0.00,weatherlink.com 1.10,2013-01-30 00:59:00,
2013-01-29 20:14:00,74.3,65.0,30.16,SSE,151,3.0,14.0,72,0.00,,,0.00,weatherlink.com 1.10,2013-01-30 01:14:00,
2013-01-29 20:29:00,74.1,65.0,30.16,SE,128,0.0,7.0,73,0.00,,,0.00,weatherlink.com 1.10,2013-01-30 01:29:00,
2013-01-29 20:44:00,74.1,65.0,30.16,ESE,117,8.0,15.0,74,0.00,,,0.00,weatherlink.com 1.10,2013-01-30 01:44:00,
2013-01-29 20:59:00,74.3,66.0,30.16,SE,136,5.0,14.0,74,0.00,,,0.00,weatherlink.com 1.10,2013-01-30 01:59:00,
2013-01-29 21:14:00,74.3,66.0,30.16,SE,126,5.0,13.0,74,0.00,,,0.00,weatherlink.com 1.10,2013-01-30 02:14:00,
2013-01-29 21:29:00,74.1,65.0,30.16,ESE,117,4.0,14.0,74,0.00,,,0.00,weatherlink.com 1.10,2013-01-30 02:29:00,
2013-01-29 21:46:00,74.1,65.0,30.16,SE,129,5.0,14.0,74,0.00,,,0.00,weatherlink.com 1.10,2013-01-30 02:46:00,
2013-01-29 21:59:00,73.9,65.0,30.16,ESE,117,3.0,19.0,74,0.00,,,0.00,weatherlink.com 1.10,2013-01-30 02:59:00,
2013-01-29 22:14:00,73.8,65.0,30.16,East,90,9.0,14.0,73,0.00,,,0.00,weatherlink.com 1.10,2013-01-30 03:14:00,
2013-01-29 22:29:00,73.8,65.0,30.16,East,88,16.0,16.0,73,0.00,,,0.00,weatherlink.com 1.10,2013-01-30 03:29:00,
2013-01-29 22:44:00,73.8,64.0,30.16,ENE,71,13.0,14.0,72,0.00,,,0.00,weatherlink.com 1.10,2013-01-30 03:44:00,
2013-01-29 23:00:00,73.6,64.0,30.16,ESE,119,4.0,16.0,71,0.00,,,0.00,weatherlink.com 1.10,2013-01-30 04:00:00,
2013-01-29 23:14:00,73.6,63.0,30.15,SE,128,9.0,21.0,69,0.00,,,0.00,weatherlink.com 1.10,2013-01-30 04:14:00,
2013-01-29 23:29:00,73.6,63.0,30.15,ESE,123,0.0,15.0,69,0.00,,,0.00,weatherlink.com 1.10,2013-01-30 04:29:00,
2013-01-29 23:45:00,73.8,64.0,30.14,East,100,8.0,16.0,71,0.00,,,0.00,weatherlink.com 1.10,2013-01-30 04:45:00,